Weather History for Klawock, AK

Change the Weather History Date:

Thursday, October 3, 2013

  Actual Average Record
Temperature  
Mean Temperature 48 °F -  
Max Temperature 53 °F 52 °F 60 °F (2003)
Min Temperature 42 °F 41 °F 33 °F (2002)
Degree Days  
Heating Degree Days 18    
Moisture  
Dew Point 46 °F    
Average Humidity 86    
Maximum Humidity 97    
Minimum Humidity 68    
Precipitation  
Precipitation 0.50 in - - ()
Sea Level Pressure  
Sea Level Pressure 29.95 in    
Wind  
Wind Speed 4 mph (SSE)    
Max Wind Speed 15 mph    
Max Gust Speed 32 mph    
Visibility 8 miles    
Events Rain    
Averages and records for this station are not official NWS values.
T = Trace of Precipitation, MM = Missing Value Source: NWS Daily Summary

Daily Weather History Graph

Daily Weather History Graph

Search for Another Location

Airport:

Trip Planner

Search our weather history database for the weather conditions in past years. The results will help you decide how hot, cold, wet, or windy it might be!

Date:

Astronomy

Oct. 03, 2013 Rise Set
Actual Time 6:59 AM AKDT 6:21 PM AKDT
Civil Twilight 6:23 AM AKDT 6:58 PM AKDT
Nautical Twilight 5:40 AM AKDT 7:40 PM AKDT
Astronomical Twilight 4:56 AM AKDT 8:24 PM AKDT
Moon 5:33 AM AKDT (10/3) 5:36 PM AKDT (10/3)
Length of Visible Light 12h 34m
Length of Day
11h 21m
Waning Crescent, 2% of the Moon is Illuminated
Oct 3
Waning Crescent
Oct 4
New
Oct 11
First Quarter
Oct 18
Full
Oct 26
Last Quarter

Hourly Weather History & Observations

Time (AKDT) Temp. Windchill Dew Point Humidity Pressure Visibility Wind Dir Wind Speed Gust Speed Precip Events Conditions
12:53 AM 42.1 °F - 41.0 °F 96% 30.14 in 10.0 mi Calm Calm - N/A   Clear
1:53 AM 42.1 °F - 41.0 °F 96% 30.13 in 10.0 mi Calm Calm - N/A   Clear
2:53 AM 43.0 °F - 42.1 °F 97% 30.11 in 10.0 mi Calm Calm - N/A   Clear
3:53 AM 44.1 °F - 42.1 °F 93% 30.09 in 10.0 mi Calm Calm - N/A   Clear
4:53 AM 44.1 °F 41.5 °F 43.0 °F 96% 30.09 in 10.0 mi NNE 4.6 mph - N/A   Mostly Cloudy
5:53 AM 46.0 °F 44.8 °F 44.1 °F 93% 30.07 in 10.0 mi Variable 3.5 mph - N/A   Overcast
6:53 AM 48.0 °F - 43.0 °F 83% 30.06 in 10.0 mi Calm Calm - N/A   Overcast
7:53 AM 50.0 °F - 43.0 °F 77% 30.04 in 10.0 mi Calm Calm - N/A   Overcast
8:53 AM 51.1 °F - 41.0 °F 68% 30.04 in 10.0 mi Variable 6.9 mph - N/A   Overcast
9:53 AM 52.0 °F - 42.1 °F 69% 30.04 in 10.0 mi South 9.2 mph - 0.00 in Rain Light Rain
10:53 AM 51.1 °F - 45.0 °F 80% 30.04 in 10.0 mi Variable 5.8 mph - 0.02 in Rain Light Rain
11:53 AM 50.0 °F - 45.0 °F 83% 30.02 in 10.0 mi Variable 4.6 mph - 0.03 in   Overcast
12:53 PM 51.1 °F - 46.0 °F 83% 29.99 in 7.0 mi Calm Calm - 0.01 in   Overcast
1:34 PM 50.0 °F - 46.4 °F 87% 29.98 in 4.0 mi SSE 8.1 mph 19.6 mph 0.02 in   Overcast
1:53 PM 51.1 °F - 46.0 °F 83% 29.97 in 8.0 mi Variable 5.8 mph 24.2 mph 0.02 in   Overcast
2:53 PM 51.1 °F - 46.0 °F 83% 29.96 in 8.0 mi South 10.4 mph 27.6 mph N/A   Overcast
3:53 PM 51.1 °F - 46.0 °F 83% 29.94 in 8.0 mi South 11.5 mph 18.4 mph 0.03 in   Overcast
4:18 PM 51.8 °F - 46.4 °F 82% 29.92 in 8.0 mi SSE 11.5 mph 25.3 mph 0.01 in   Overcast
4:53 PM 52.0 °F - 46.0 °F 80% 29.89 in 10.0 mi SSE 15.0 mph 32.2 mph 0.01 in   Overcast
5:06 PM 51.8 °F - 46.4 °F 82% 29.89 in 10.0 mi SSE 11.5 mph 26.5 mph N/A   Overcast
5:53 PM 51.1 °F - 46.0 °F 83% 29.88 in 9.0 mi SSE 10.4 mph - N/A   Overcast
6:53 PM 51.1 °F - 48.0 °F 89% 29.85 in 4.0 mi Variable 5.8 mph - 0.06 in Rain Rain
8:39 PM 51.8 °F - 48.2 °F 88% 29.80 in 4.0 mi Calm Calm - 0.13 in Rain Heavy Rain
8:53 PM 51.1 °F - 48.9 °F 92% 29.80 in 5.0 mi Variable 5.8 mph - 0.15 in Rain Rain
9:53 PM 52.0 °F - 48.9 °F 89% 29.77 in 4.0 mi Variable 6.9 mph 19.6 mph 0.08 in   Mist
10:16 PM 51.8 °F - 50.0 °F 94% 29.77 in 3.0 mi SSE 12.7 mph 24.2 mph 0.02 in   Overcast
10:25 PM 51.8 °F - 50.0 °F 94% 29.77 in 3.0 mi South 13.8 mph 29.9 mph 0.04 in   Overcast
10:53 PM 53.1 °F - 50.0 °F 89% 29.77 in 6.0 mi South 11.5 mph 28.8 mph 0.06 in   Overcast
11:53 PM 53.1 °F - 50.0 °F 89% 29.79 in 9.0 mi South 9.2 mph 16.1 mph 0.03 in   Overcast